FW4023 Weather Reports


Display with metric or nautical units.
time (UTC)temp
F
wind
direction
speed
MPH
gust
MPH
rain 1hr
in
rain 24hr
in
rain mn
in
humidity
%
barometer
mb
20260504234024 48 39 1.0 5.0 0.00 0.00 0.00 90 1026.6
20260504233003 48 25 1.0 3.0 0.00 0.00 0.00 90 1026.5
20260504232003 48 5 1.0 3.0 0.00 0.00 0.00 90 1026.4
20260504231024 48 5 1.0 3.0 0.00 0.00 0.00 90 1026.3
20260504230004 48 359 1.0 4.0 0.00 0.00 0.00 90 1026.3
20260504225004 48 18 1.0 3.0 0.00 0.00 0.00 89 1026.2
20260504224003 48 88 1.0 5.0 0.00 0.00 0.00 89 1026.0
20260504223003 48 341 1.0 4.0 0.00 0.00 0.00 89 1025.9
20260504222003 49 67 2.0 8.0 0.00 0.00 0.00 89 1025.9
20260504221004 49 30 1.0 7.0 0.00 0.00 0.00 89 1025.9
20260504220004 49 2 1.0 4.0 0.00 0.00 0.00 89 1025.7
20260504215004 49 22 1.0 3.0 0.00 0.00 0.00 89 1025.7
20260504214003 49 16 1.0 4.0 0.00 0.00 0.00 89 1025.6
20260504213004 49 16 2.0 5.0 0.00 0.00 0.00 89 1025.7
20260504212004 49 322 1.0 4.0 0.00 0.00 0.00 89 1025.8
20260504211004 49 321 1.0 4.0 0.00 0.00 0.00 89 1025.9
20260504210004 49 64 1.0 4.0 0.00 0.00 0.00 89 1025.9
20260504205004 49 327 1.0 4.0 0.00 0.00 0.00 88 1025.9
20260504204025 49 315 1.0 3.0 0.00 0.00 0.00 88 1025.9
20260504203025 49 290 1.0 3.0 0.00 0.00 0.00 88 1025.9
20260504202025 49 264 1.0 2.0 0.00 0.00 0.00 88 1025.8
20260504201004 49 262 1.0 2.0 0.00 0.00 0.00 88 1025.8
20260504200025 49 260 1.0 4.0 0.00 0.00 0.00 87 1025.9
20260504195025 49 258 1.0 2.0 0.00 0.00 0.00 87 1025.9
20260504194004 49 258 1.0 2.0 0.00 0.00 0.00 87 1025.8
20260504193004 49 258 0.0 2.0 0.00 0.00 0.00 87 1025.8
20260504192004 50 257 1.0 3.0 0.00 0.00 0.00 87 1025.7
20260504191004 50 257 1.0 4.0 0.00 0.00 0.00 87 1025.8
20260504190025 50 74 1.0 2.0 0.00 0.00 0.00 87 1025.9
20260504185025 50 118 1.0 3.0 0.00 0.00 0.00 87 1026.0
20260504184004 50 179 1.0 4.0 0.00 0.00 0.00 87 1025.9
20260504183004 50 202 1.0 3.0 0.00 0.00 0.00 86 1025.9
20260504182004 50 207 1.0 4.0 0.00 0.00 0.00 86 1026.0
20260504181004 50 207 0.0 2.0 0.00 0.00 0.00 85 1025.9
20260504180004 50 204 1.0 4.0 0.00 0.00 0.00 85 1026.0
20260504175025 50 71 1.0 4.0 0.00 0.00 0.00 85 1026.1
20260504174004 51 358 1.0 3.0 0.00 0.00 0.00 85 1026.1
20260504173025 51 327 0.0 2.0 0.00 0.00 0.00 85 1026.1
20260504172004 51 324 0.0 3.0 0.00 0.00 0.00 85 1026.0
20260504171004 51 321 1.0 3.0 0.00 0.00 0.00 85 1026.1
20260504151003 52 351 3.0 5.0 0.00 0.00 0.00 83 1026.5
20260504141003 54 72 0.0 3.0 0.00 0.00 0.00 80 1026.6
20260504082004 69 194 3.0 7.0 0.00 0.00 0.00 56 1025.1
20260504081004 70 160 2.0 6.0 0.00 0.00 0.00 55 1025.2
20260504050004 66 208 4.0 8.0 0.00 0.00 0.00 62 1026.1
20260504045004 66 119 1.0 7.0 0.00 0.00 0.00 61 1026.3
20260504044003 66 177 2.0 6.0 0.00 0.00 0.00 63 1026.4
20260504043003 66 147 2.0 6.0 0.00 0.00 0.00 64 1026.5
20260504042003 65 86 2.0 4.0 0.00 0.00 0.00 64 1026.7
20260504041003 65 152 2.0 8.0 0.00 0.00 0.00 65 1026.9
20260504040004 65 169 2.0 7.0 0.00 0.00 0.00 65 1027.0
20260504035003 64 20 3.0 8.0 0.00 0.00 0.00 66 1027.3
20260504034003 64 164 2.0 6.0 0.00 0.00 0.00 66 1027.5
20260504033004 64 95 1.0 4.0 0.00 0.00 0.00 68 1027.5
20260504032004 63 147 2.0 7.0 0.00 0.00 0.00 69 1027.7
20260504031004 63 182 2.0 4.0 0.00 0.00 0.00 70 1027.6
20260504030004 62 95 2.0 6.0 0.00 0.00 0.00 71 1027.8
20260504025004 61 234 2.0 8.0 0.00 0.00 0.00 72 1027.9
20260504024025 61 145 3.0 7.0 0.00 0.00 0.00 73 1027.8
20260504023004 60 165 2.0 8.0 0.00 0.00 0.00 74 1027.7
20260504022004 60 135 3.0 9.0 0.00 0.00 0.00 74 1027.8
20260504021004 59 102 2.0 9.0 0.00 0.00 0.00 77 1027.9
20260504020004 58 106 3.0 9.0 0.00 0.00 0.00 80 1028.0
20260504015025 57 88 3.0 9.0 0.00 0.00 0.00 85 1028.1
20260504014004 56 110 2.0 9.0 0.00 0.00 0.00 88 1028.1
20260504013004 54 121 2.0 10.0 0.00 0.00 0.00 89 1028.1
20260504012004 53 139 1.0 4.0 0.00 0.01 0.00 89 1028.1
20260504011004 52 131 2.0 6.0 0.00 0.01 0.00 89 1028.2
20260504010005 52 183 1.0 4.0 0.00 0.01 0.00 89 1028.3
20260504005004 51 118 1.0 7.0 0.00 0.01 0.00 90 1028.3
20260504004004 51 65 1.0 4.0 0.00 0.01 0.00 90 1028.4
20260504003004 50 70 1.0 5.0 0.00 0.01 0.00 90 1028.3
20260504002004 50 52 1.0 4.0 0.00 0.01 0.00 90 1028.3
20260504001004 50 61 1.0 3.0 0.00 0.01 0.00 90 1028.3
20260504000004 49 82 2.0 7.0 0.00 0.01 0.00 90 1028.2
20260503235004 49 84 1.0 5.0 0.00 0.01 0.00 89 1028.2